This demonstration page uses our WeatherBlox Daily Observations layout. Learn more.

Left ArrowRight Arrow

Hourly Observations for December 2, 2019

Temp ( °F °C ) Dew Point ( °F °C ) Humidity (%) Winds ( mph kmh ) Pressure ( in mb ) Visibility ( mi km ) Precip ( " mm )
12:53 am 00:53 Clear 31 -0.6 24 -4.4 76 76 SW 21 33 29.93 1013 10 16 0.00 0.00
1:53 am 01:53 Clear 29 -1.7 24 -4.4 82 82 WNW 12 19 29.94 1014 10 16 0.00 0.00
2:31 am 02:31 Clear 32 0 26 -3.3 79 79 SW 23 37 29.92 1013 10 16 0.00 0.00
2:53 am 02:53 Clear 32 0 26 -3.3 79 79 SW 24 39 29.91 1013 10 16 0.00 0.00
3:53 am 03:53 Clear 32 0 26 -3.3 79 79 SW 17 28 29.93 1013 10 16 0.00 0.00
4:53 am 04:53 Clear 35 1.7 28 -2.2 76 76 SW 29 46 29.92 1013 10 16 0.00 0.00
5:53 am 05:53 Clear 34 1.1 27 -2.8 76 76 SW 25 41 29.92 1013 10 16 0.00 0.00
6:53 am 06:53 Clear 34 1.1 27 -2.8 76 76 SW 24 39 29.93 1014 10 16 0.00 0.00
7:53 am 07:53 Sunny 34 1.1 27 -2.8 76 76 SSW 26 43 29.93 1013 10 16 0.00 0.00
8:53 am 08:53 Sunny 34 1.1 27 -2.8 76 76 SW 25 41 29.94 1014 10 16 0.00 0.00
9:53 am 09:53 Partly Cloudy 36 2.2 29 -1.7 76 76 SW 24 39 29.94 1014 10 16 0.00 0.00
10:53 am 10:53 Cloudy 37 2.8 29 -1.7 73 73 SW 23 37 29.93 1014 10 16 0.00 0.00
11:53 am 11:53 Mostly Cloudy 38 3.3 29 -1.7 70 70 SW 18 30 29.90 1013 10 16 0.00 0.00
12:53 pm 12:53 Cloudy 37 2.8 30 -1.1 76 76 SW 15 24 29.88 1012 10 16 0.00 0.00
1:53 pm 13:53 Cloudy 37 2.8 30 -1.1 76 76 WSW 14 22 29.88 1012 10 16 0.00 0.00
2:53 pm 14:53 Partly Cloudy 37 2.8 31 -0.6 79 79 WSW 17 28 29.85 1011 10 16 0.00 0.00
3:53 pm 15:53 Mostly Sunny 37 2.8 31 -0.6 79 79 SW 18 30 29.85 1011 10 16 0.00 0.00
4:53 pm 16:53 Clear 35 1.7 30 -1.1 82 82 SW 17 28 29.86 1011 10 16 0.00 0.00
5:53 pm 17:53 Clear 35 1.7 28 -2.2 76 76 SW 21 33 29.86 1011 10 16 0.00 0.00
6:53 pm 18:53 Clear 33 0.6 27 -2.8 78 78 SW 17 28 29.86 1011 10 16 0.00 0.00
7:53 pm 19:53 Clear 31 -0.6 26 -3.3 82 82 SW 17 28 29.86 1011 10 16 0.00 0.00
8:53 pm 20:53 Clear 30 -1.1 25 -3.9 82 82 SW 17 28 29.86 1011 10 16 0.00 0.00
9:53 pm 21:53 Clear 31 -0.6 25 -3.9 79 79 SW 20 31 29.85 1011 10 16 0.00 0.00
10:53 pm 22:53 Clear 31 -0.6 24 -4.4 76 76 SW 16 26 29.87 1012 10 16 0.00 0.00
11:53 pm 23:53 Clear 33 0.6 25 -3.9 72 72 SW 22 35 29.85 1011 10 16 0.00 0.00

Powered by AerisWeather